TimeEDT,TemperatureF,Dew PointF,Humidity,Sea Level PressureIn,VisibilityMPH,Wind Direction,Wind SpeedMPH,Gust SpeedMPH,PrecipitationIn,Events,Conditions,WindDirDegrees,DateUTC
12:54 AM,42.1,39.0,89,30.12,9.0,Calm,Calm,-,0.03,Rain,Light Rain,0,2012-10-08 04:54:00
1:54 AM,42.1,39.0,89,30.13,10.0,Calm,Calm,-,0.02,Rain,Light Rain,0,2012-10-08 05:54:00
2:54 AM,42.1,39.0,89,30.12,10.0,Calm,Calm,-,0.00,Rain,Light Rain,0,2012-10-08 06:54:00
3:35 AM,41.0,39.2,93,30.10,10.0,Calm,Calm,-,0.01,,Overcast,0,2012-10-08 07:35:00
3:50 AM,41.0,39.2,93,30.11,10.0,Calm,Calm,-,0.01,,Overcast,0,2012-10-08 07:50:00
3:54 AM,41.0,39.0,93,30.12,10.0,Calm,Calm,-,0.01,,Overcast,0,2012-10-08 07:54:00
4:14 AM,41.0,39.2,93,30.11,10.0,Calm,Calm,-,N/A,,Overcast,0,2012-10-08 08:14:00
4:49 AM,41.0,39.2,93,30.12,10.0,Calm,Calm,-,N/A,,Overcast,0,2012-10-08 08:49:00
4:54 AM,41.0,39.0,93,30.14,10.0,Calm,Calm,-,N/A,,Overcast,0,2012-10-08 08:54:00
5:20 AM,41.0,39.2,93,30.13,10.0,Calm,Calm,-,N/A,,Overcast,0,2012-10-08 09:20:00
5:42 AM,41.0,39.2,93,30.13,10.0,Calm,Calm,-,N/A,,Overcast,0,2012-10-08 09:42:00
5:50 AM,42.8,39.2,87,30.14,10.0,Calm,Calm,-,N/A,,Overcast,0,2012-10-08 09:50:00
5:54 AM,42.1,39.0,89,30.15,10.0,Calm,Calm,-,N/A,,Overcast,0,2012-10-08 09:54:00
6:15 AM,41.0,39.2,93,30.14,10.0,Calm,Calm,-,N/A,,Overcast,0,2012-10-08 10:15:00
6:45 AM,41.0,39.2,93,30.15,10.0,Calm,Calm,-,N/A,,Overcast,0,2012-10-08 10:45:00
6:54 AM,41.0,39.0,93,30.17,10.0,Calm,Calm,-,N/A,,Overcast,0,2012-10-08 10:54:00
7:16 AM,42.8,39.2,87,30.16,10.0,Calm,Calm,-,N/A,,Overcast,0,2012-10-08 11:16:00
7:44 AM,42.8,39.2,87,30.19,10.0,Calm,Calm,-,N/A,,Overcast,0,2012-10-08 11:44:00
7:54 AM,42.1,39.9,92,30.21,10.0,Calm,Calm,-,N/A,,Overcast,0,2012-10-08 11:54:00
8:05 AM,42.8,39.2,87,30.20,10.0,Calm,Calm,-,N/A,,Overcast,0,2012-10-08 12:05:00
8:23 AM,42.8,39.2,87,30.20,9.0,Calm,Calm,-,0.00,Rain,Light Rain,0,2012-10-08 12:23:00
8:54 AM,42.1,39.9,92,30.24,10.0,NE,3.5,-,0.00,,Overcast,40,2012-10-08 12:54:00
9:02 AM,42.8,39.2,87,30.22,10.0,Calm,Calm,-,N/A,,Overcast,0,2012-10-08 13:02:00
9:18 AM,42.8,39.2,87,30.22,10.0,Calm,Calm,-,N/A,,Overcast,0,2012-10-08 13:18:00
9:54 AM,45.0,41.0,86,30.25,10.0,Calm,Calm,-,N/A,,Overcast,0,2012-10-08 13:54:00
10:04 AM,46.4,41.0,81,30.23,10.0,SE,3.5,-,N/A,,Mostly Cloudy,130,2012-10-08 14:04:00
10:11 AM,46.4,41.0,81,30.23,10.0,ESE,4.6,-,N/A,,Overcast,120,2012-10-08 14:11:00
10:19 AM,46.4,39.2,76,30.23,10.0,Variable,3.5,-,N/A,,Overcast,0,2012-10-08 14:19:00
10:54 AM,46.0,39.9,79,30.25,10.0,North,3.5,-,0.00,Rain,Light Rain,10,2012-10-08 14:54:00
11:08 AM,46.4,39.2,76,30.23,10.0,Calm,Calm,-,0.00,,Scattered Clouds,0,2012-10-08 15:08:00
11:54 AM,51.1,39.0,63,30.26,10.0,Variable,4.6,-,0.00,,Mostly Cloudy,0,2012-10-08 15:54:00
12:54 PM,46.9,36.0,66,30.27,10.0,Calm,Calm,-,0.00,,Overcast,0,2012-10-08 16:54:00
1:54 PM,50.0,37.0,61,30.25,10.0,ESE,4.6,-,N/A,,Partly Cloudy,110,2012-10-08 17:54:00
2:54 PM,51.1,35.1,54,30.25,10.0,SSE,3.5,-,N/A,,Scattered Clouds,150,2012-10-08 18:54:00
3:54 PM,53.1,30.9,43,30.25,10.0,Calm,Calm,-,N/A,,Clear,0,2012-10-08 19:54:00
4:54 PM,52.0,30.0,43,30.26,10.0,Calm,Calm,-,N/A,,Clear,0,2012-10-08 20:54:00
5:54 PM,46.9,39.0,74,30.27,10.0,Calm,Calm,-,N/A,,Clear,0,2012-10-08 21:54:00
6:54 PM,43.0,37.9,82,30.30,10.0,Calm,Calm,-,N/A,,Clear,0,2012-10-08 22:54:00
7:54 PM,39.9,37.0,89,30.31,10.0,Calm,Calm,-,N/A,,Clear,0,2012-10-08 23:54:00
8:54 PM,39.9,36.0,86,30.32,10.0,Calm,Calm,-,N/A,,Clear,0,2012-10-09 00:54:00
9:54 PM,37.0,34.0,89,30.33,10.0,Calm,Calm,-,N/A,,Clear,0,2012-10-09 01:54:00
10:54 PM,35.1,33.1,92,30.34,10.0,Calm,Calm,-,N/A,,Clear,0,2012-10-09 02:54:00
11:54 PM,33.1,30.9,92,30.35,10.0,Calm,Calm,-,N/A,,Clear,0,2012-10-09 03:54:00